Weather History for Moline, IL

Change the Weather History Date:

Tuesday, June 11, 2013

  Actual Average Record
Temperature  
Mean Temperature 72 °F 70 °F  
Max Temperature 87 °F 81 °F 99 °F (1933)
Min Temperature 57 °F 60 °F 39 °F (1972)
Degree Days  
Heating Degree Days 0 1  
Month to date heating degree days 27 14  
Since 1 June heating degree days 27 14  
Since 1 July heating degree days 6335 6198  
Cooling Degree Days 7 6  
Month to date cooling degree days 15 55  
Year to date cooling degree days 105 131  
Since 1 June cooling degree days 15 55  
Growing Degree Days 22 (Base 50)    
Moisture  
Dew Point 64 °F    
Average Humidity 74    
Maximum Humidity 100    
Minimum Humidity 48    
Precipitation  
Precipitation 0.00 in 0.15 in 2.45 in (1942)
Month to date precipitation 0.72 1.64  
Year to date precipitation 23.87 15.50  
Snow  
Snow 0.00 in 0.00 in - ()
Month to date snowfall 0.0 0.0  
Since 1 June snowfall 0.0 0.0  
Since 1 July snowfall 34.5 31.6  
Snow Depth 0.00 in    
Sea Level Pressure  
Sea Level Pressure 29.86 in    
Wind  
Wind Speed 4 mph (SSE)    
Max Wind Speed 14 mph    
Max Gust Speed 23 mph    
Visibility 9 miles    
Events      
T = Trace of Precipitation, MM = Missing Value Source: NWS Daily Summary

Daily Weather History Graph

Daily Weather History Graph

Search for Another Location

Airport:

Trip Planner

Search our weather history database for the weather conditions in past years. The results will help you decide how hot, cold, wet, or windy it might be!

Date:

Astronomy

Jun. 11, 2013 Rise Set
Actual Time 5:27 AM CDT 8:35 PM CDT
Civil Twilight 4:54 AM CDT 9:09 PM CDT
Nautical Twilight 4:10 AM CDT 9:53 PM CDT
Astronomical Twilight 3:19 AM CDT 10:44 PM CDT
Moon 8:12 AM CDT (6/11) 10:37 PM CDT (6/11)
Length of Visible Light 16h 15m
Length of Day
15h 07m
Waxing Crescent, 8% of the Moon is Illuminated
Jun 11
Waxing Crescent
Jun 16
First Quarter
Jun 23
Full
Jun 29
Last Quarter
Jul 8
New

Hourly Weather History & Observations

Time (CDT) Temp. Heat Index Dew Point Humidity Pressure Visibility Wind Dir Wind Speed Gust Speed Precip Events Conditions
12:52 AM 61.0 °F - 59.0 °F 93% 29.90 in 6.0 mi Calm Calm - N/A   Mostly Cloudy
1:52 AM 62.1 °F - 60.1 °F 93% 29.92 in 8.0 mi Calm Calm - N/A   Mostly Cloudy
2:52 AM 60.1 °F - 57.9 °F 93% 29.91 in 8.0 mi East 3.5 mph - N/A   Clear
3:52 AM 60.1 °F - 57.9 °F 93% 29.90 in 9.0 mi Calm Calm - N/A   Clear
4:52 AM 60.1 °F - 57.0 °F 90% 29.90 in 6.0 mi Calm Calm - N/A   Clear
5:52 AM 57.9 °F - 57.0 °F 97% 29.90 in 5.0 mi Calm Calm - N/A   Clear
6:52 AM 64.9 °F - 61.0 °F 87% 29.90 in 8.0 mi Calm Calm - N/A   Clear
7:52 AM 66.9 °F - 62.1 °F 84% 29.90 in 8.0 mi Calm Calm - N/A   Clear
8:52 AM 71.1 °F - 62.1 °F 73% 29.90 in 10.0 mi SSW 8.1 mph - N/A   Mostly Cloudy
9:52 AM 75.0 °F - 64.0 °F 69% 29.88 in 10.0 mi Variable 5.8 mph - N/A   Scattered Clouds
10:52 AM 79.0 °F - 64.9 °F 62% 29.87 in 10.0 mi SSE 10.4 mph 17.3 mph N/A   Mostly Cloudy
11:52 AM 81.0 °F 82.5 °F 64.0 °F 56% 29.85 in 10.0 mi SE 10.4 mph - N/A   Clear
12:52 PM 84.0 °F 85.4 °F 64.0 °F 51% 29.84 in 10.0 mi SSE 12.7 mph - N/A   Clear
1:52 PM 84.0 °F 84.9 °F 63.0 °F 49% 29.85 in 10.0 mi South 5.8 mph - N/A   Mostly Cloudy
2:52 PM 84.0 °F 86.3 °F 66.0 °F 55% 29.83 in 10.0 mi South 9.2 mph - N/A   Clear
3:52 PM 84.9 °F 87.6 °F 66.9 °F 55% 29.83 in 10.0 mi South 8.1 mph - N/A   Partly Cloudy
4:52 PM 84.9 °F 87.6 °F 66.9 °F 55% 29.82 in 10.0 mi WSW 5.8 mph - N/A   Clear
5:52 PM 84.9 °F 88.2 °F 68.0 °F 57% 29.81 in 10.0 mi Calm Calm - N/A   Partly Cloudy
6:52 PM 84.0 °F 87.0 °F 68.0 °F 58% 29.80 in 10.0 mi Calm Calm - N/A   Clear
7:52 PM 81.0 °F 84.4 °F 70.0 °F 69% 29.79 in 10.0 mi Calm Calm - N/A   Clear
8:52 PM 78.1 °F - 70.0 °F 76% 29.79 in 10.0 mi SE 3.5 mph - N/A   Clear
9:52 PM 75.0 °F - 70.0 °F 84% 29.82 in 10.0 mi SE 3.5 mph - N/A   Clear
10:52 PM 75.9 °F - 69.1 °F 79% 29.83 in 10.0 mi Calm Calm - N/A   Clear
11:52 PM 72.0 °F - 69.1 °F 91% 29.82 in 10.0 mi SE 3.5 mph - N/A   Clear